Time,TemperatureF,DewpointF,PressureIn,WindDirection,WindDirectionDegrees,WindSpeedMPH,WindSpeedGustMPH,Humidity,HourlyPrecipIn,Conditions,Clouds,dailyrainin,SoftwareType,DateUTC
2013-05-08 00:01:00,51.0,49.9,29.88,SW,219,0.0,0.0,96,0.00,,,0.02,Wunderground v.1.15,2013-05-08 04:01:00,
2013-05-08 00:02:00,51.0,49.9,29.88,SW,219,0.0,0.0,96,0.00,,,0.02,Wunderground v.1.15,2013-05-08 04:02:00,
2013-05-08 00:03:00,51.0,49.9,29.88,SW,219,0.0,0.0,96,0.00,,,0.02,Wunderground v.1.15,2013-05-08 04:03:00,
2013-05-08 00:05:00,51.0,49.9,29.88,SW,219,0.0,0.0,96,0.00,,,0.02,Wunderground v.1.15,2013-05-08 04:05:00,
2013-05-08 00:07:00,51.0,49.9,29.88,SW,219,0.0,0.0,96,0.00,,,0.02,Wunderground v.1.15,2013-05-08 04:07:00,
2013-05-08 00:13:00,51.0,49.9,29.88,SW,219,0.0,0.0,96,0.00,,,0.02,Wunderground v.1.15,2013-05-08 04:13:00,
2013-05-08 00:18:00,51.1,50.0,29.88,SW,219,0.0,0.0,96,0.00,,,0.02,Wunderground v.1.15,2013-05-08 04:18:00,
2013-05-08 00:24:00,51.1,50.0,29.88,SW,219,0.0,0.0,96,0.00,,,0.02,Wunderground v.1.15,2013-05-08 04:24:00,
2013-05-08 00:29:00,51.1,50.0,29.88,SW,219,0.0,0.0,96,0.00,,,0.02,Wunderground v.1.15,2013-05-08 04:29:00,
2013-05-08 00:35:00,51.1,50.0,29.87,SW,219,0.0,0.0,96,0.00,,,0.02,Wunderground v.1.15,2013-05-08 04:35:00,
2013-05-08 00:40:00,51.1,50.0,29.87,SW,219,0.0,0.0,96,0.00,,,0.02,Wunderground v.1.15,2013-05-08 04:40:00,
2013-05-08 00:46:00,51.3,50.2,29.87,SW,219,0.0,0.0,96,0.00,,,0.03,Wunderground v.1.15,2013-05-08 04:46:00,
2013-05-08 00:51:00,51.3,50.2,29.87,SW,219,0.0,0.0,96,0.07,,,0.04,Wunderground v.1.15,2013-05-08 04:51:00,
2013-05-08 00:57:00,51.3,50.2,29.87,SW,219,0.0,0.0,96,0.07,,,0.04,Wunderground v.1.15,2013-05-08 04:57:00,
2013-05-08 01:02:00,51.3,50.2,29.87,SW,219,0.0,0.0,96,0.05,,,0.04,Wunderground v.1.15,2013-05-08 05:02:00,
2013-05-08 01:08:00,51.3,50.2,29.87,SW,219,0.0,0.0,96,0.00,,,0.04,Wunderground v.1.15,2013-05-08 05:08:00,
2013-05-08 01:14:00,51.3,50.2,29.87,SW,219,0.0,0.0,96,0.00,,,0.04,Wunderground v.1.15,2013-05-08 05:14:00,
2013-05-08 01:19:00,51.3,50.2,29.86,SW,219,0.0,0.0,96,0.00,,,0.04,Wunderground v.1.15,2013-05-08 05:19:00,
2013-05-08 01:25:00,51.3,50.2,29.86,SW,219,0.0,0.0,96,0.00,,,0.04,Wunderground v.1.15,2013-05-08 05:25:00,
2013-05-08 01:30:00,51.3,50.2,29.86,SW,219,0.0,0.0,96,0.00,,,0.04,Wunderground v.1.15,2013-05-08 05:30:00,
2013-05-08 01:36:00,51.3,50.2,29.86,SW,219,0.0,0.0,96,0.00,,,0.05,Wunderground v.1.15,2013-05-08 05:36:00,
2013-05-08 01:41:00,51.3,50.2,29.86,SW,219,0.0,0.0,96,0.00,,,0.05,Wunderground v.1.15,2013-05-08 05:41:00,
2013-05-08 01:47:00,51.3,50.2,29.86,SW,219,0.0,0.0,96,0.00,,,0.05,Wunderground v.1.15,2013-05-08 05:47:00,
2013-05-08 01:52:00,51.4,50.3,29.86,SW,219,0.0,0.0,96,0.00,,,0.05,Wunderground v.1.15,2013-05-08 05:52:00,
2013-05-08 01:58:00,51.4,50.3,29.86,SW,219,0.0,0.0,96,0.00,,,0.05,Wunderground v.1.15,2013-05-08 05:58:00,
2013-05-08 02:03:00,51.4,50.3,29.86,SW,219,0.0,0.0,96,0.00,,,0.05,Wunderground v.1.15,2013-05-08 06:03:00,
2013-05-08 02:09:00,51.6,50.5,29.86,SW,219,0.0,0.0,96,0.00,,,0.05,Wunderground v.1.15,2013-05-08 06:09:00,
2013-05-08 02:15:00,51.6,50.5,29.86,SW,219,0.0,0.0,96,0.00,,,0.05,Wunderground v.1.15,2013-05-08 06:15:00,
2013-05-08 02:20:00,51.6,50.5,29.86,SW,219,0.0,0.0,96,0.00,,,0.05,Wunderground v.1.15,2013-05-08 06:20:00,
2013-05-08 02:26:00,51.6,50.5,29.86,SW,219,0.0,0.0,96,0.00,,,0.05,Wunderground v.1.15,2013-05-08 06:26:00,
2013-05-08 02:31:00,51.6,50.5,29.86,SW,219,0.0,0.0,96,0.00,,,0.05,Wunderground v.1.15,2013-05-08 06:31:00,
2013-05-08 02:37:00,51.6,50.5,29.86,SW,219,0.0,0.0,96,0.00,,,0.05,Wunderground v.1.15,2013-05-08 06:37:00,
2013-05-08 02:42:00,51.6,50.5,29.86,SW,219,0.0,0.0,96,0.00,,,0.05,Wunderground v.1.15,2013-05-08 06:42:00,
2013-05-08 02:48:00,51.6,50.5,29.86,SW,219,0.0,0.0,96,0.00,,,0.05,Wunderground v.1.15,2013-05-08 06:48:00,
2013-05-08 02:53:00,51.6,50.5,29.86,SW,219,0.0,0.0,96,0.00,,,0.05,Wunderground v.1.15,2013-05-08 06:53:00,
2013-05-08 02:59:00,51.6,50.5,29.86,SW,219,0.0,0.0,96,0.00,,,0.05,Wunderground v.1.15,2013-05-08 06:59:00,
2013-05-08 03:05:00,51.6,50.5,29.86,SW,219,0.0,0.0,96,0.00,,,0.05,Wunderground v.1.15,2013-05-08 07:05:00,
2013-05-08 03:10:00,51.6,50.5,29.86,SW,219,0.0,0.0,96,0.00,,,0.05,Wunderground v.1.15,2013-05-08 07:10:00,
2013-05-08 03:16:00,51.6,50.5,29.86,SW,219,0.0,0.0,96,0.00,,,0.05,Wunderground v.1.15,2013-05-08 07:16:00,
2013-05-08 03:21:00,51.6,50.5,29.86,SW,219,0.0,0.0,96,0.00,,,0.05,Wunderground v.1.15,2013-05-08 07:21:00,
2013-05-08 03:27:00,51.4,50.3,29.86,SW,219,0.0,0.0,96,0.00,,,0.05,Wunderground v.1.15,2013-05-08 07:27:00,
2013-05-08 03:32:00,51.4,50.3,29.86,SW,219,0.0,0.0,96,0.00,,,0.05,Wunderground v.1.15,2013-05-08 07:32:00,
2013-05-08 03:38:00,51.4,50.3,29.86,SW,219,0.0,0.0,96,0.00,,,0.05,Wunderground v.1.15,2013-05-08 07:38:00,
2013-05-08 03:43:00,51.3,50.2,29.86,SW,219,0.0,0.0,96,0.00,,,0.05,Wunderground v.1.15,2013-05-08 07:43:00,
2013-05-08 03:49:00,51.3,50.2,29.86,SW,219,0.0,0.0,96,0.00,,,0.05,Wunderground v.1.15,2013-05-08 07:49:00,
2013-05-08 03:55:00,51.1,50.0,29.86,SW,219,0.0,0.0,96,0.00,,,0.05,Wunderground v.1.15,2013-05-08 07:55:00,
2013-05-08 04:00:00,51.1,50.0,29.86,SW,219,0.0,0.0,96,0.00,,,0.05,Wunderground v.1.15,2013-05-08 08:00:00,
2013-05-08 04:06:00,51.1,50.0,29.86,SW,219,0.0,0.0,96,0.00,,,0.05,Wunderground v.1.15,2013-05-08 08:06:00,
2013-05-08 04:11:00,51.1,50.0,29.86,SW,219,0.0,0.0,96,0.00,,,0.05,Wunderground v.1.15,2013-05-08 08:11:00,
2013-05-08 04:17:00,51.0,49.9,29.86,SW,219,0.0,2.0,96,0.00,,,0.05,Wunderground v.1.15,2013-05-08 08:17:00,
2013-05-08 04:22:00,51.0,49.9,29.86,SW,219,0.0,0.0,96,0.00,,,0.05,Wunderground v.1.15,2013-05-08 08:22:00,
2013-05-08 04:28:00,50.8,49.7,29.86,SW,219,0.0,0.0,96,0.00,,,0.05,Wunderground v.1.15,2013-05-08 08:28:00,
2013-05-08 04:33:00,50.8,49.7,29.86,SW,219,0.0,0.0,96,0.00,,,0.05,Wunderground v.1.15,2013-05-08 08:33:00,
2013-05-08 04:39:00,50.7,49.6,29.86,SW,219,0.0,0.0,96,0.00,,,0.05,Wunderground v.1.15,2013-05-08 08:39:00,
2013-05-08 04:44:00,50.5,49.4,29.86,SW,219,0.0,0.0,96,0.00,,,0.05,Wunderground v.1.15,2013-05-08 08:44:00,
2013-05-08 04:50:00,50.5,49.4,29.86,SW,219,0.0,0.0,96,0.00,,,0.05,Wunderground v.1.15,2013-05-08 08:50:00,
2013-05-08 04:56:00,50.5,49.4,29.86,SW,219,0.0,0.0,96,0.00,,,0.05,Wunderground v.1.15,2013-05-08 08:56:00,
2013-05-08 05:01:00,50.5,49.4,29.87,SW,219,0.0,0.0,96,0.00,,,0.05,Wunderground v.1.15,2013-05-08 09:01:00,
2013-05-08 05:07:00,50.4,49.3,29.87,SW,219,0.0,0.0,96,0.00,,,0.05,Wunderground v.1.15,2013-05-08 09:07:00,
2013-05-08 05:12:00,50.4,49.3,29.87,SW,219,0.0,0.0,96,0.00,,,0.05,Wunderground v.1.15,2013-05-08 09:12:00,
2013-05-08 05:18:00,50.4,49.3,29.87,SW,219,0.0,0.0,96,0.00,,,0.05,Wunderground v.1.15,2013-05-08 09:18:00,
2013-05-08 05:23:00,50.4,49.3,29.87,SW,219,0.0,0.0,96,0.00,,,0.05,Wunderground v.1.15,2013-05-08 09:23:00,
2013-05-08 05:29:00,50.2,49.1,29.87,SW,219,0.0,0.0,96,0.00,,,0.05,Wunderground v.1.15,2013-05-08 09:29:00,
2013-05-08 05:35:00,50.2,49.1,29.87,SW,219,0.0,0.0,96,0.00,,,0.05,Wunderground v.1.15,2013-05-08 09:35:00,
2013-05-08 05:40:00,50.1,49.0,29.87,SW,219,0.0,0.0,96,0.00,,,0.05,Wunderground v.1.15,2013-05-08 09:40:00,
2013-05-08 05:46:00,50.1,49.0,29.88,SW,219,0.0,0.0,96,0.00,,,0.05,Wunderground v.1.15,2013-05-08 09:46:00,
2013-05-08 05:51:00,50.1,49.0,29.88,SW,219,0.0,0.0,96,0.00,,,0.05,Wunderground v.1.15,2013-05-08 09:51:00,
2013-05-08 05:57:00,49.9,48.8,29.88,SW,219,0.0,0.0,96,0.00,,,0.05,Wunderground v.1.15,2013-05-08 09:57:00,
2013-05-08 06:02:00,49.9,48.8,29.88,SW,219,0.0,0.0,96,0.00,,,0.05,Wunderground v.1.15,2013-05-08 10:02:00,
2013-05-08 06:08:00,49.9,48.8,29.88,SW,219,0.0,0.0,96,0.00,,,0.05,Wunderground v.1.15,2013-05-08 10:08:00,
2013-05-08 06:14:00,49.9,48.8,29.88,SW,219,0.0,0.0,96,0.00,,,0.05,Wunderground v.1.15,2013-05-08 10:14:00,
2013-05-08 06:19:00,49.9,48.8,29.88,SW,219,0.0,0.0,96,0.00,,,0.05,Wunderground v.1.15,2013-05-08 10:19:00,
2013-05-08 06:25:00,49.9,48.8,29.88,SW,219,0.0,0.0,96,0.00,,,0.05,Wunderground v.1.15,2013-05-08 10:25:00,
2013-05-08 06:30:00,49.9,48.8,29.88,SW,219,0.0,0.0,96,0.00,,,0.05,Wunderground v.1.15,2013-05-08 10:30:00,
2013-05-08 06:36:00,49.9,48.8,29.88,SW,219,0.0,0.0,96,0.00,,,0.05,Wunderground v.1.15,2013-05-08 10:36:00,
2013-05-08 06:41:00,49.9,48.8,29.88,SW,219,0.0,0.0,96,0.00,,,0.05,Wunderground v.1.15,2013-05-08 10:41:00,
2013-05-08 06:47:00,49.9,48.8,29.89,SW,219,0.0,0.0,96,0.00,,,0.05,Wunderground v.1.15,2013-05-08 10:47:00,
2013-05-08 06:52:00,49.9,48.8,29.89,SW,219,0.0,0.0,96,0.00,,,0.05,Wunderground v.1.15,2013-05-08 10:52:00,
2013-05-08 06:58:00,49.9,48.8,29.89,SW,219,0.0,0.0,96,0.00,,,0.05,Wunderground v.1.15,2013-05-08 10:58:00,
2013-05-08 07:03:00,49.9,48.8,29.89,SW,219,0.0,0.0,96,0.00,,,0.05,Wunderground v.1.15,2013-05-08 11:03:00,
2013-05-08 07:09:00,49.8,48.7,29.89,SW,219,0.0,0.0,96,0.00,,,0.05,Wunderground v.1.15,2013-05-08 11:09:00,
2013-05-08 07:15:00,49.8,48.7,29.89,SW,219,0.0,0.0,96,0.00,,,0.05,Wunderground v.1.15,2013-05-08 11:15:00,
2013-05-08 07:21:00,49.9,48.8,29.90,SW,219,0.0,0.0,96,0.00,,,0.05,Wunderground v.1.15,2013-05-08 11:21:00,
2013-05-08 07:27:00,49.9,48.8,29.90,SW,219,0.0,0.0,96,0.00,,,0.05,Wunderground v.1.15,2013-05-08 11:27:00,
2013-05-08 07:33:00,50.1,49.0,29.90,SW,219,0.0,0.0,96,0.00,,,0.05,Wunderground v.1.15,2013-05-08 11:33:00,
2013-05-08 07:38:00,50.2,49.1,29.90,SW,219,0.0,0.0,96,0.00,,,0.05,Wunderground v.1.15,2013-05-08 11:38:00,
2013-05-08 07:44:00,50.2,49.1,29.90,SW,219,0.0,0.0,96,0.00,,,0.05,Wunderground v.1.15,2013-05-08 11:44:00,
2013-05-08 07:49:00,50.2,49.1,29.90,SW,219,0.0,0.0,96,0.00,,,0.05,Wunderground v.1.15,2013-05-08 11:49:00,
2013-05-08 07:55:00,50.4,49.3,29.90,SW,219,0.0,0.0,96,0.00,,,0.05,Wunderground v.1.15,2013-05-08 11:55:00,
2013-05-08 08:00:00,50.4,49.3,29.90,SW,219,0.0,0.0,96,0.00,,,0.05,Wunderground v.1.15,2013-05-08 12:00:00,
2013-05-08 08:06:00,50.5,49.4,29.90,SW,219,0.0,0.0,96,0.00,,,0.05,Wunderground v.1.15,2013-05-08 12:06:00,
2013-05-08 08:11:00,50.7,49.6,29.90,SW,219,0.0,0.0,96,0.00,,,0.05,Wunderground v.1.15,2013-05-08 12:11:00,
2013-05-08 08:17:00,50.7,49.6,29.91,SW,219,0.0,0.0,96,0.00,,,0.05,Wunderground v.1.15,2013-05-08 12:17:00,
2013-05-08 08:23:00,50.7,49.6,29.91,SW,219,0.0,0.0,96,0.00,,,0.05,Wunderground v.1.15,2013-05-08 12:23:00,
2013-05-08 08:28:00,50.8,49.7,29.91,SW,219,0.0,0.0,96,0.00,,,0.05,Wunderground v.1.15,2013-05-08 12:28:00,
2013-05-08 08:34:00,50.8,49.7,29.91,SW,219,0.0,0.0,96,0.00,,,0.05,Wunderground v.1.15,2013-05-08 12:34:00,
2013-05-08 08:39:00,50.8,49.7,29.91,SW,219,0.0,0.0,96,0.00,,,0.05,Wunderground v.1.15,2013-05-08 12:39:00,
2013-05-08 08:45:00,51.0,49.9,29.91,SW,219,0.0,0.0,96,0.00,,,0.05,Wunderground v.1.15,2013-05-08 12:45:00,
2013-05-08 08:50:00,51.1,50.0,29.91,SW,219,0.0,0.0,96,0.00,,,0.05,Wunderground v.1.15,2013-05-08 12:50:00,
2013-05-08 08:56:00,51.3,50.2,29.91,SW,219,0.0,0.0,96,0.00,,,0.05,Wunderground v.1.15,2013-05-08 12:56:00,
2013-05-08 09:01:00,51.4,50.3,29.92,SW,219,0.0,0.0,96,0.00,,,0.05,Wunderground v.1.15,2013-05-08 13:01:00,
2013-05-08 09:07:00,51.7,50.6,29.92,SW,219,0.0,0.0,96,0.00,,,0.05,Wunderground v.1.15,2013-05-08 13:07:00,
2013-05-08 09:13:00,51.9,50.8,29.92,SW,219,0.0,0.0,96,0.00,,,0.05,Wunderground v.1.15,2013-05-08 13:13:00,
2013-05-08 09:18:00,52.2,51.1,29.92,SW,219,0.0,2.0,96,0.00,,,0.05,Wunderground v.1.15,2013-05-08 13:18:00,
2013-05-08 09:24:00,52.3,51.2,29.92,SW,219,0.0,1.0,96,0.00,,,0.05,Wunderground v.1.15,2013-05-08 13:24:00,
2013-05-08 09:29:00,52.5,51.4,29.92,SW,219,0.0,1.0,96,0.00,,,0.05,Wunderground v.1.15,2013-05-08 13:29:00,
2013-05-08 09:35:00,52.6,51.5,29.92,SW,219,0.0,0.0,96,0.00,,,0.05,Wunderground v.1.15,2013-05-08 13:35:00,
2013-05-08 09:40:00,52.8,51.7,29.92,SW,219,0.0,0.0,96,0.00,,,0.05,Wunderground v.1.15,2013-05-08 13:40:00,
2013-05-08 09:46:00,53.1,52.0,29.92,SW,219,0.0,0.0,96,0.00,,,0.05,Wunderground v.1.15,2013-05-08 13:46:00,
2013-05-08 09:51:00,53.2,52.1,29.92,SW,219,0.0,0.0,96,0.00,,,0.05,Wunderground v.1.15,2013-05-08 13:51:00,
2013-05-08 09:57:00,53.5,52.4,29.92,SW,219,0.0,0.0,96,0.00,,,0.05,Wunderground v.1.15,2013-05-08 13:57:00,
2013-05-08 10:03:00,53.8,52.7,29.92,SW,219,0.0,0.0,96,0.00,,,0.05,Wunderground v.1.15,2013-05-08 14:03:00,
2013-05-08 10:09:00,53.9,52.8,29.92,SW,216,0.0,2.0,96,0.00,,,0.05,Wunderground v.1.15,2013-05-08 14:09:00,
2013-05-08 10:15:00,53.9,52.8,29.92,SW,216,0.0,0.0,96,0.00,,,0.05,Wunderground v.1.15,2013-05-08 14:15:00,
2013-05-08 10:20:00,53.9,52.8,29.93,SW,215,0.0,1.0,96,0.00,,,0.05,Wunderground v.1.15,2013-05-08 14:20:00,
2013-05-08 10:26:00,53.9,52.8,29.93,SW,222,0.0,1.0,96,0.00,,,0.05,Wunderground v.1.15,2013-05-08 14:26:00,
2013-05-08 10:31:00,53.9,52.8,29.93,SW,222,0.0,0.0,96,0.00,,,0.05,Wunderground v.1.15,2013-05-08 14:31:00,
2013-05-08 10:37:00,53.9,52.8,29.93,SW,222,0.0,0.0,96,0.00,,,0.05,Wunderground v.1.15,2013-05-08 14:37:00,
2013-05-08 10:43:00,54.1,53.0,29.93,SW,215,0.0,0.0,96,0.00,,,0.05,Wunderground v.1.15,2013-05-08 14:43:00,
2013-05-08 10:49:00,54.2,53.1,29.93,SW,215,0.0,0.0,96,0.00,,,0.05,Wunderground v.1.15,2013-05-08 14:49:00,
2013-05-08 10:55:00,54.2,53.1,29.93,SW,215,0.0,0.0,96,0.00,,,0.05,Wunderground v.1.15,2013-05-08 14:55:00,
2013-05-08 11:00:00,54.2,52.8,29.93,SW,215,0.0,0.0,95,0.00,,,0.05,Wunderground v.1.15,2013-05-08 15:00:00,
2013-05-08 11:06:00,54.2,52.8,29.94,SW,215,0.0,0.0,95,0.00,,,0.05,Wunderground v.1.15,2013-05-08 15:06:00,
2013-05-08 11:11:00,54.5,53.1,29.94,SW,215,0.0,0.0,95,0.00,,,0.05,Wunderground v.1.15,2013-05-08 15:11:00,
2013-05-08 11:17:00,54.8,53.4,29.93,SW,215,0.0,1.0,95,0.00,,,0.05,Wunderground v.1.15,2013-05-08 15:17:00,
2013-05-08 11:23:00,55.0,53.3,29.93,SW,215,0.0,0.0,94,0.00,,,0.05,Wunderground v.1.15,2013-05-08 15:23:00,
2013-05-08 11:29:00,55.1,53.4,29.93,SW,215,0.0,0.0,94,0.00,,,0.05,Wunderground v.1.15,2013-05-08 15:29:00,
2013-05-08 11:35:00,55.6,53.9,29.93,SW,215,0.0,0.0,94,0.00,,,0.05,Wunderground v.1.15,2013-05-08 15:35:00,
2013-05-08 11:40:00,55.4,53.4,29.93,SW,215,0.0,0.0,93,0.00,,,0.05,Wunderground v.1.15,2013-05-08 15:40:00,
2013-05-08 11:46:00,55.4,53.1,29.92,SW,215,0.0,0.0,92,0.00,,,0.05,Wunderground v.1.15,2013-05-08 15:46:00,
2013-05-08 11:51:00,55.4,52.8,29.92,SW,215,0.0,1.0,91,0.00,,,0.05,Wunderground v.1.15,2013-05-08 15:51:00,
2013-05-08 11:57:00,55.9,53.3,29.92,SW,216,0.0,1.0,91,0.00,,,0.05,Wunderground v.1.15,2013-05-08 15:57:00,
2013-05-08 12:02:00,56.0,53.1,29.92,SW,216,0.0,0.0,90,0.00,,,0.05,Wunderground v.1.15,2013-05-08 16:02:00,
2013-05-08 12:08:00,56.2,53.3,29.92,SW,216,0.0,0.0,90,0.00,,,0.05,Wunderground v.1.15,2013-05-08 16:08:00,
2013-05-08 12:14:00,56.2,53.3,29.92,SW,216,0.0,0.0,90,0.00,,,0.05,Wunderground v.1.15,2013-05-08 16:14:00,
2013-05-08 12:19:00,56.2,53.0,29.92,SW,216,0.0,0.0,89,0.00,,,0.05,Wunderground v.1.15,2013-05-08 16:19:00,
2013-05-08 12:25:00,56.3,53.1,29.92,SW,216,0.0,0.0,89,0.00,,,0.05,Wunderground v.1.15,2013-05-08 16:25:00,
2013-05-08 12:30:00,56.5,53.3,29.92,SW,216,0.0,0.0,89,0.00,,,0.05,Wunderground v.1.15,2013-05-08 16:30:00,
2013-05-08 12:36:00,56.6,53.4,29.92,SW,216,0.0,0.0,89,0.00,,,0.05,Wunderground v.1.15,2013-05-08 16:36:00,
2013-05-08 12:41:00,56.9,53.7,29.92,SW,216,0.0,0.0,89,0.00,,,0.05,Wunderground v.1.15,2013-05-08 16:41:00,
2013-05-08 12:47:00,57.0,53.8,29.92,SW,216,0.0,0.0,89,0.00,,,0.05,Wunderground v.1.15,2013-05-08 16:47:00,
2013-05-08 12:53:00,56.9,53.1,29.92,SW,216,0.0,0.0,87,0.00,,,0.05,Wunderground v.1.15,2013-05-08 16:53:00,
2013-05-08 12:58:00,56.9,52.8,29.92,SW,216,0.0,0.0,86,0.00,,,0.05,Wunderground v.1.15,2013-05-08 16:58:00,
2013-05-08 13:04:00,57.2,53.0,29.91,SW,216,0.0,0.0,86,0.00,,,0.05,Wunderground v.1.15,2013-05-08 17:04:00,
2013-05-08 13:09:00,57.5,53.0,29.91,SW,216,0.0,0.0,85,0.00,,,0.05,Wunderground v.1.15,2013-05-08 17:09:00,
2013-05-08 13:15:00,57.6,53.1,29.91,SW,216,0.0,0.0,85,0.00,,,0.05,Wunderground v.1.15,2013-05-08 17:15:00,
2013-05-08 13:20:00,57.8,53.3,29.91,SW,216,0.0,0.0,85,0.00,,,0.05,Wunderground v.1.15,2013-05-08 17:20:00,
2013-05-08 13:26:00,58.0,53.5,29.91,SW,216,0.0,0.0,85,0.00,,,0.05,Wunderground v.1.15,2013-05-08 17:26:00,
2013-05-08 13:32:00,58.4,53.9,29.91,SW,216,0.0,0.0,85,0.00,,,0.05,Wunderground v.1.15,2013-05-08 17:32:00,
2013-05-08 13:37:00,58.7,53.5,29.91,SW,216,0.0,0.0,83,0.00,,,0.05,Wunderground v.1.15,2013-05-08 17:37:00,
2013-05-08 13:43:00,58.7,53.2,29.91,SW,223,0.0,0.0,82,0.00,,,0.05,Wunderground v.1.15,2013-05-08 17:43:00,
2013-05-08 13:48:00,58.7,53.2,29.90,SW,220,0.0,0.0,82,0.00,,,0.05,Wunderground v.1.15,2013-05-08 17:48:00,
2013-05-08 13:54:00,59.0,53.5,29.90,SW,220,0.0,0.0,82,0.00,,,0.05,Wunderground v.1.15,2013-05-08 17:54:00,
2013-05-08 13:59:00,59.0,53.5,29.90,SW,220,0.0,0.0,82,0.00,,,0.05,Wunderground v.1.15,2013-05-08 17:59:00,
2013-05-08 14:05:00,59.2,53.7,29.90,SW,220,0.0,0.0,82,0.00,,,0.05,Wunderground v.1.15,2013-05-08 18:05:00,
2013-05-08 14:10:00,59.2,53.7,29.90,SW,220,0.0,0.0,82,0.00,,,0.05,Wunderground v.1.15,2013-05-08 18:10:00,
2013-05-08 14:16:00,59.2,53.7,29.90,SW,220,0.0,0.0,82,0.00,,,0.05,Wunderground v.1.15,2013-05-08 18:16:00,
2013-05-08 14:22:00,59.2,54.7,29.90,SW,220,0.0,0.0,85,0.00,,,0.05,Wunderground v.1.15,2013-05-08 18:22:00,
2013-05-08 14:27:00,59.5,54.7,29.90,SW,220,0.0,0.0,84,0.00,,,0.05,Wunderground v.1.15,2013-05-08 18:27:00,
2013-05-08 14:33:00,59.9,54.7,29.89,SW,220,0.0,0.0,83,0.00,,,0.05,Wunderground v.1.15,2013-05-08 18:33:00,
2013-05-08 14:38:00,60.4,55.2,29.89,SW,220,0.0,0.0,83,0.00,,,0.05,Wunderground v.1.15,2013-05-08 18:38:00,
2013-05-08 14:44:00,60.9,55.4,29.89,SW,220,0.0,0.0,82,0.00,,,0.05,Wunderground v.1.15,2013-05-08 18:44:00,
2013-05-08 14:49:00,61.6,56.0,29.89,SSE,154,0.0,2.0,82,0.00,,,0.05,Wunderground v.1.15,2013-05-08 18:49:00,
2013-05-08 14:55:00,62.6,57.0,29.89,West,263,0.0,2.0,82,0.00,,,0.05,Wunderground v.1.15,2013-05-08 18:55:00,
2013-05-08 15:00:00,63.1,56.1,29.89,West,265,1.0,1.0,78,0.00,,,0.05,Wunderground v.1.15,2013-05-08 19:00:00,
2013-05-08 15:06:00,63.5,56.5,29.88,West,267,1.0,2.0,78,0.00,,,0.05,Wunderground v.1.15,2013-05-08 19:06:00,
2013-05-08 15:12:00,63.7,56.4,29.88,WSW,258,0.0,0.0,77,0.00,,,0.05,Wunderground v.1.15,2013-05-08 19:12:00,
2013-05-08 15:17:00,63.9,56.5,29.88,NNW,329,0.0,2.0,77,0.00,,,0.05,Wunderground v.1.15,2013-05-08 19:17:00,
2013-05-08 15:23:00,64.2,56.5,29.88,WSW,253,0.0,0.0,76,0.00,,,0.05,Wunderground v.1.15,2013-05-08 19:23:00,
2013-05-08 15:28:00,64.2,56.5,29.88,SSE,157,0.0,2.0,76,0.00,,,0.05,Wunderground v.1.15,2013-05-08 19:28:00,
2013-05-08 15:34:00,64.3,56.9,29.88,WSW,237,0.0,0.0,77,0.00,,,0.05,Wunderground v.1.15,2013-05-08 19:34:00,
2013-05-08 15:39:00,64.5,56.8,29.88,WSW,237,0.0,0.0,76,0.00,,,0.05,Wunderground v.1.15,2013-05-08 19:39:00,
2013-05-08 15:45:00,64.7,57.0,29.88,WSW,237,0.0,0.0,76,0.00,,,0.05,Wunderground v.1.15,2013-05-08 19:45:00,
2013-05-08 15:50:00,64.8,57.1,29.87,WSW,239,0.0,0.0,76,0.00,,,0.05,Wunderground v.1.15,2013-05-08 19:50:00,
2013-05-08 15:56:00,65.3,57.9,29.87,WSW,239,0.0,1.0,77,0.00,,,0.05,Wunderground v.1.15,2013-05-08 19:56:00,
2013-05-08 16:01:00,65.5,57.0,29.86,WSW,243,0.0,1.0,74,0.00,,,0.05,Wunderground v.1.15,2013-05-08 20:01:00,
2013-05-08 16:07:00,66.0,56.3,29.86,WSW,243,0.0,1.0,71,0.00,,,0.05,Wunderground v.1.15,2013-05-08 20:07:00,
2013-05-08 16:13:00,66.1,55.6,29.86,WSW,237,0.0,0.0,69,0.00,,,0.05,Wunderground v.1.15,2013-05-08 20:13:00,
2013-05-08 16:18:00,66.0,55.5,29.86,SSE,162,0.0,0.0,69,0.00,,,0.05,Wunderground v.1.15,2013-05-08 20:18:00,
2013-05-08 16:24:00,66.0,55.9,29.86,WSW,239,0.0,0.0,70,0.00,,,0.05,Wunderground v.1.15,2013-05-08 20:24:00,
2013-05-08 16:29:00,66.1,55.6,29.86,South,184,0.0,3.0,69,0.00,,,0.05,Wunderground v.1.15,2013-05-08 20:29:00,
2013-05-08 16:35:00,66.3,55.4,29.86,South,169,1.0,3.0,68,0.00,,,0.05,Wunderground v.1.15,2013-05-08 20:35:00,
2013-05-08 16:41:00,66.3,56.2,29.86,WSW,256,1.0,2.0,70,0.00,,,0.05,Wunderground v.1.15,2013-05-08 20:41:00,
2013-05-08 16:46:00,66.3,56.2,29.86,WSW,256,1.0,2.0,70,0.00,,,0.05,Wunderground v.1.15,2013-05-08 20:46:00,
2013-05-08 16:52:00,66.1,56.8,29.86,WSW,256,0.0,0.0,72,0.00,,,0.05,Wunderground v.1.15,2013-05-08 20:52:00,
2013-05-08 16:57:00,66.1,56.8,29.86,WSW,256,0.0,0.0,72,0.00,,,0.05,Wunderground v.1.15,2013-05-08 20:57:00,
2013-05-08 17:03:00,66.1,58.7,29.86,WSW,256,0.0,0.0,77,0.00,,,0.05,Wunderground v.1.15,2013-05-08 21:03:00,
2013-05-08 17:09:00,66.1,59.0,29.86,WSW,256,0.0,0.0,78,0.00,,,0.05,Wunderground v.1.15,2013-05-08 21:09:00,
2013-05-08 17:15:00,66.1,59.7,29.86,WSW,256,0.0,0.0,80,0.00,,,0.05,Wunderground v.1.15,2013-05-08 21:15:00,
2013-05-08 17:21:00,66.1,59.4,29.87,WSW,256,0.0,0.0,79,0.00,,,0.05,Wunderground v.1.15,2013-05-08 21:21:00,
2013-05-08 17:26:00,66.0,60.0,29.87,WSW,256,0.0,0.0,81,0.00,,,0.05,Wunderground v.1.15,2013-05-08 21:26:00,
2013-05-08 17:32:00,65.8,60.2,29.88,WSW,256,0.0,0.0,82,0.00,,,0.05,Wunderground v.1.15,2013-05-08 21:32:00,
2013-05-08 17:37:00,65.6,60.0,29.88,WSW,256,0.0,0.0,82,0.00,,,0.05,Wunderground v.1.15,2013-05-08 21:37:00,
2013-05-08 17:43:00,65.3,59.7,29.88,WSW,256,0.0,0.0,82,0.00,,,0.05,Wunderground v.1.15,2013-05-08 21:43:00,
2013-05-08 17:48:00,65.0,59.7,29.88,WSW,256,0.0,0.0,83,0.00,,,0.05,Wunderground v.1.15,2013-05-08 21:48:00,
2013-05-08 17:54:00,64.7,59.8,29.88,WSW,256,0.0,0.0,84,0.00,,,0.05,Wunderground v.1.15,2013-05-08 21:54:00,
2013-05-08 17:59:00,64.2,59.6,29.88,NNE,24,0.0,0.0,85,0.00,,,0.05,Wunderground v.1.15,2013-05-08 21:59:00,
2013-05-08 18:05:00,63.9,59.6,29.89,NNE,24,0.0,0.0,86,0.00,,,0.05,Wunderground v.1.15,2013-05-08 22:05:00,
2013-05-08 18:11:00,63.4,59.5,29.89,NNE,24,0.0,0.0,87,0.00,,,0.05,Wunderground v.1.15,2013-05-08 22:11:00,
2013-05-08 18:16:00,62.9,59.3,29.90,NNE,24,0.0,0.0,88,0.00,,,0.05,Wunderground v.1.15,2013-05-08 22:16:00,
2013-05-08 18:22:00,62.4,58.2,29.90,NNE,30,0.0,0.0,86,0.00,,,0.05,Wunderground v.1.15,2013-05-08 22:22:00,
2013-05-08 18:27:00,62.1,57.9,29.90,NNE,30,0.0,0.0,86,0.00,,,0.05,Wunderground v.1.15,2013-05-08 22:27:00,
2013-05-08 18:33:00,61.8,57.9,29.89,NNE,28,0.0,0.0,87,0.00,,,0.05,Wunderground v.1.15,2013-05-08 22:33:00,
2013-05-08 18:38:00,61.5,57.6,29.89,NNE,28,0.0,0.0,87,0.00,,,0.05,Wunderground v.1.15,2013-05-08 22:38:00,
2013-05-08 18:44:00,61.3,57.7,29.89,NNE,28,0.0,0.0,88,0.00,,,0.05,Wunderground v.1.15,2013-05-08 22:44:00,
2013-05-08 18:49:00,61.2,57.6,29.89,NNE,28,0.0,0.0,88,0.00,,,0.05,Wunderground v.1.15,2013-05-08 22:49:00,
2013-05-08 18:55:00,61.0,57.7,29.89,NNE,28,0.0,0.0,89,0.00,,,0.06,Wunderground v.1.15,2013-05-08 22:55:00,
2013-05-08 19:01:00,60.7,57.4,29.90,NNE,30,0.0,0.0,89,0.00,,,0.06,Wunderground v.1.15,2013-05-08 23:01:00,
2013-05-08 19:07:00,60.5,57.2,29.90,NNE,28,0.0,0.0,89,0.00,,,0.06,Wunderground v.1.15,2013-05-08 23:07:00,
2013-05-08 19:13:00,60.4,57.1,29.90,NNE,28,0.0,0.0,89,0.00,,,0.06,Wunderground v.1.15,2013-05-08 23:13:00,
2013-05-08 19:18:00,60.2,57.3,29.90,NNE,28,0.0,0.0,90,0.00,,,0.06,Wunderground v.1.15,2013-05-08 23:18:00,
2013-05-08 19:24:00,60.1,57.2,29.90,NNE,30,0.0,0.0,90,0.00,,,0.06,Wunderground v.1.15,2013-05-08 23:24:00,
2013-05-08 19:29:00,59.9,57.0,29.90,NNE,28,0.0,0.0,90,0.00,,,0.06,Wunderground v.1.15,2013-05-08 23:29:00,
2013-05-08 19:35:00,59.9,57.0,29.90,NNE,28,0.0,0.0,90,0.00,,,0.06,Wunderground v.1.15,2013-05-08 23:35:00,
2013-05-08 19:41:00,59.8,57.2,29.90,NNE,28,0.0,0.0,91,0.00,,,0.06,Wunderground v.1.15,2013-05-08 23:41:00,
2013-05-08 19:47:00,59.6,57.0,29.91,NNE,28,0.0,0.0,91,0.00,,,0.06,Wunderground v.1.15,2013-05-08 23:47:00,
2013-05-08 19:53:00,59.6,57.0,29.91,NNE,28,0.0,0.0,91,0.00,,,0.06,Wunderground v.1.15,2013-05-08 23:53:00,
2013-05-08 19:58:00,59.5,56.9,29.91,NNE,28,0.0,0.0,91,0.00,,,0.06,Wunderground v.1.15,2013-05-08 23:58:00,
2013-05-08 20:04:00,59.3,57.0,29.92,NNE,28,0.0,0.0,92,0.00,,,0.06,Wunderground v.1.15,2013-05-09 00:04:00,
2013-05-08 20:09:00,59.2,56.9,29.92,NNE,28,0.0,0.0,92,0.00,,,0.06,Wunderground v.1.15,2013-05-09 00:09:00,
2013-05-08 20:15:00,59.0,56.7,29.92,NNE,28,0.0,0.0,92,0.00,,,0.06,Wunderground v.1.15,2013-05-09 00:15:00,
2013-05-08 20:21:00,58.9,56.6,29.92,NNE,28,0.0,0.0,92,0.00,,,0.06,Wunderground v.1.15,2013-05-09 00:21:00,
2013-05-08 20:27:00,58.7,56.4,29.92,NNE,28,0.0,0.0,92,0.00,,,0.06,Wunderground v.1.15,2013-05-09 00:27:00,
2013-05-08 20:33:00,58.6,56.3,29.92,NNE,28,0.0,0.0,92,0.00,,,0.06,Wunderground v.1.15,2013-05-09 00:33:00,
2013-05-08 20:38:00,58.4,56.1,29.92,NNE,28,0.0,0.0,92,0.00,,,0.06,Wunderground v.1.15,2013-05-09 00:38:00,
2013-05-08 20:44:00,58.3,56.0,29.92,NNE,28,0.0,0.0,92,0.00,,,0.06,Wunderground v.1.15,2013-05-09 00:44:00,
2013-05-08 20:49:00,58.3,56.3,29.92,NNE,28,0.0,0.0,93,0.00,,,0.06,Wunderground v.1.15,2013-05-09 00:49:00,
2013-05-08 20:55:00,58.1,56.1,29.92,NNE,28,0.0,0.0,93,0.00,,,0.06,Wunderground v.1.15,2013-05-09 00:55:00,
2013-05-08 21:00:00,58.0,56.0,29.92,NNE,28,0.0,0.0,93,0.00,,,0.06,Wunderground v.1.15,2013-05-09 01:00:00,
2013-05-08 21:06:00,58.0,56.0,29.92,NNE,28,0.0,0.0,93,0.00,,,0.06,Wunderground v.1.15,2013-05-09 01:06:00,
2013-05-08 21:12:00,57.8,55.8,29.92,NNE,28,0.0,0.0,93,0.00,,,0.06,Wunderground v.1.15,2013-05-09 01:12:00,
2013-05-08 21:17:00,57.6,55.6,29.93,NNE,28,0.0,0.0,93,0.00,,,0.06,Wunderground v.1.15,2013-05-09 01:17:00,
2013-05-08 21:23:00,57.6,55.6,29.93,NNE,28,0.0,0.0,93,0.00,,,0.06,Wunderground v.1.15,2013-05-09 01:23:00,
2013-05-08 21:28:00,57.5,55.5,29.93,NNE,28,0.0,0.0,93,0.00,,,0.06,Wunderground v.1.15,2013-05-09 01:28:00,
2013-05-08 21:34:00,57.3,55.3,29.94,NNE,28,0.0,0.0,93,0.00,,,0.06,Wunderground v.1.15,2013-05-09 01:34:00,
2013-05-08 21:39:00,57.2,55.2,29.94,NNE,28,0.0,0.0,93,0.00,,,0.06,Wunderground v.1.15,2013-05-09 01:39:00,
2013-05-08 21:45:00,57.0,55.0,29.94,NNE,28,0.0,0.0,93,0.00,,,0.06,Wunderground v.1.15,2013-05-09 01:45:00,
2013-05-08 21:50:00,56.9,54.9,29.94,NNE,28,0.0,0.0,93,0.00,,,0.06,Wunderground v.1.15,2013-05-09 01:50:00,
2013-05-08 21:56:00,56.7,55.0,29.94,NNE,18,0.0,0.0,94,0.00,,,0.06,Wunderground v.1.15,2013-05-09 01:56:00,
2013-05-08 22:01:00,56.6,54.9,29.95,NNE,18,0.0,0.0,94,0.00,,,0.06,Wunderground v.1.15,2013-05-09 02:01:00,
2013-05-08 22:07:00,56.6,54.9,29.95,NNE,18,0.0,0.0,94,0.00,,,0.06,Wunderground v.1.15,2013-05-09 02:07:00,
2013-05-08 22:13:00,56.5,54.8,29.95,NNE,18,0.0,0.0,94,0.00,,,0.06,Wunderground v.1.15,2013-05-09 02:13:00,
2013-05-08 22:18:00,56.3,54.6,29.95,NNE,18,0.0,0.0,94,0.00,,,0.06,Wunderground v.1.15,2013-05-09 02:18:00,
2013-05-08 22:24:00,56.2,54.5,29.95,NNE,18,0.0,0.0,94,0.00,,,0.06,Wunderground v.1.15,2013-05-09 02:24:00,
2013-05-08 22:29:00,56.0,54.3,29.95,NNE,18,0.0,0.0,94,0.00,,,0.06,Wunderground v.1.15,2013-05-09 02:29:00,
2013-05-08 22:35:00,55.7,54.0,29.96,NNE,18,0.0,0.0,94,0.00,,,0.06,Wunderground v.1.15,2013-05-09 02:35:00,
2013-05-08 22:40:00,55.6,53.9,29.96,NNE,18,0.0,0.0,94,0.00,,,0.06,Wunderground v.1.15,2013-05-09 02:40:00,
2013-05-08 22:46:00,55.3,53.3,29.96,NNE,18,0.0,0.0,93,0.00,,,0.06,Wunderground v.1.15,2013-05-09 02:46:00,
2013-05-08 22:51:00,55.1,53.4,29.96,NNE,18,0.0,0.0,94,0.00,,,0.06,Wunderground v.1.15,2013-05-09 02:51:00,
2013-05-08 22:57:00,55.0,53.3,29.96,NNE,18,0.0,0.0,94,0.00,,,0.06,Wunderground v.1.15,2013-05-09 02:57:00,
2013-05-08 23:03:00,54.8,53.1,29.97,NNE,18,0.0,0.0,94,0.00,,,0.00,Wunderground v.1.15,2013-05-09 03:03:00,
2013-05-08 23:08:00,54.8,53.1,29.97,NNE,18,0.0,0.0,94,0.00,,,0.00,Wunderground v.1.15,2013-05-09 03:08:00,
2013-05-08 23:14:00,54.5,52.8,29.97,NNE,18,0.0,0.0,94,0.00,,,0.00,Wunderground v.1.15,2013-05-09 03:14:00,
2013-05-08 23:19:00,54.5,52.8,29.96,NNE,18,0.0,0.0,94,0.00,,,0.00,Wunderground v.1.15,2013-05-09 03:19:00,
2013-05-08 23:25:00,54.2,52.5,29.96,NNE,18,0.0,0.0,94,0.00,,,0.00,Wunderground v.1.15,2013-05-09 03:25:00,
2013-05-08 23:30:00,54.1,52.4,29.96,NNE,18,0.0,0.0,94,0.00,,,0.00,Wunderground v.1.15,2013-05-09 03:30:00,
2013-05-08 23:36:00,53.8,52.1,29.96,NNE,18,0.0,0.0,94,0.00,,,0.00,Wunderground v.1.15,2013-05-09 03:36:00,
2013-05-08 23:41:00,53.6,51.9,29.96,NNE,18,0.0,0.0,94,0.00,,,0.00,Wunderground v.1.15,2013-05-09 03:41:00,
2013-05-08 23:47:00,53.5,51.8,29.96,NNE,18,0.0,0.0,94,0.00,,,0.00,Wunderground v.1.15,2013-05-09 03:47:00,
2013-05-08 23:52:00,53.5,51.8,29.96,NNE,18,0.0,0.0,94,0.00,,,0.00,Wunderground v.1.15,2013-05-09 03:52:00,
2013-05-08 23:58:00,53.2,51.5,29.96,NNE,18,0.0,0.0,94,0.00,,,0.00,Wunderground v.1.15,2013-05-09 03:58:00,